Weather History for KSDB - June, 2013

Change the Weather History Date:

Monday, June 10, 2013

  Actual Average Record
Temperature  
Mean Temperature 63 °F 65 °F  
Max Temperature 75 °F 75 °F 94 °F (1994)
Min Temperature 50 °F 55 °F 36 °F (1954)
Degree Days  
Heating Degree Days 2 4  
Month to date heating degree days 2 44  
Since 1 June heating degree days 2 44  
Since 1 July heating degree days 3056 4072  
Cooling Degree Days 0 3  
Month to date cooling degree days 96 29  
Year to date cooling degree days 226 74  
Since 1 June cooling degree days 96 29  
Growing Degree Days 12 (Base 50)    
Moisture  
Dew Point 39 °F    
Average Humidity 45    
Maximum Humidity 63    
Minimum Humidity 26    
Precipitation  
Precipitation 0.00 in 0.00 in 0.05 in (1976)
Month to date precipitation 0.00 0.03  
Year to date precipitation 2.91 8.45  
Since 1 July precipitation 4.28 12.30  
Sea Level Pressure  
Sea Level Pressure 29.88 in    
Wind  
Wind Speed 14 mph (SSW)    
Max Wind Speed 30 mph    
Max Gust Speed 37 mph    
Visibility 10 miles    
Events      
T = Trace of Precipitation, MM = Missing Value Source: NWS Daily Summary

Daily Weather History Graph

Daily Weather History Graph

Search for Another Location

Airport or City:

Trip Planner

Search our weather history database for the weather conditions in past years. The results will help you decide how hot, cold, wet, or windy it might be!

Date:

Astronomy

Jun. 10, 2013 Rise Set
Actual Time 5:41 AM PDT 8:07 PM PDT
Civil Twilight 5:11 AM PDT 8:37 PM PDT
Nautical Twilight 4:35 AM PDT 9:13 PM PDT
Astronomical Twilight 3:55 AM PDT 9:53 PM PDT
Moon 7:30 AM PDT (6/10) 9:42 PM PDT (6/10)
Length of Visible Light 15h 25m
Length of Day
14h 26m
Waxing Crescent, 4% of the Moon is Illuminated
Jun 10
Waxing Crescent
Jun 16
First Quarter
Jun 23
Full
Jun 29
Last Quarter
Jul 8
New

Hourly Weather History & Observations

Time (PDT) Temp. Dew Point Humidity Pressure Visibility Wind Dir Wind Speed Gust Speed Precip Events Conditions
12:48 AM 59.0 °F 24.1 °F 26% 29.83 in 10.0 mi SSW 13.8 mph - N/A   Clear
1:48 AM - - N/A% - 0.7 mi North - - N/A   Unknown
2:48 AM 57.9 °F 24.1 °F 27% 29.80 in 10.0 mi South 12.7 mph - N/A   Clear
3:48 AM 55.9 °F 28.0 °F 34% 29.80 in 10.0 mi South 12.7 mph - N/A   Clear
4:48 AM 55.0 °F 33.1 °F 43% 29.80 in 10.0 mi South 15.0 mph - N/A   Clear
5:48 AM 54.0 °F 34.0 °F 47% 29.81 in 10.0 mi South 12.7 mph - N/A   Clear
6:48 AM 51.1 °F 39.0 °F 63% 29.83 in 10.0 mi South 13.8 mph - N/A   Clear
7:48 AM 53.1 °F 37.9 °F 57% 29.86 in 10.0 mi South 16.1 mph - N/A   Clear
8:48 AM 55.0 °F 42.1 °F 62% 29.88 in 10.0 mi SSW 11.5 mph - N/A   Clear
9:48 AM 62.1 °F 39.9 °F 44% 29.88 in 10.0 mi South 12.7 mph - N/A   Clear
10:48 AM 64.9 °F 39.0 °F 39% 29.89 in 10.0 mi South 13.8 mph 21.9 mph N/A   Clear
11:48 AM 68.0 °F 39.9 °F 36% 29.88 in 10.0 mi South 15.0 mph 21.9 mph N/A   Clear
12:48 PM 71.1 °F 42.1 °F 35% 29.88 in 10.0 mi SSE 18.4 mph 26.5 mph N/A   Clear
1:48 PM 72.0 °F 43.0 °F 35% 29.88 in 10.0 mi South 17.3 mph 27.6 mph N/A   Clear
2:48 PM 73.9 °F 42.1 °F 32% 29.89 in 10.0 mi SSE 11.5 mph 24.2 mph N/A   Clear
3:48 PM 73.0 °F 42.1 °F 33% 29.89 in 10.0 mi SSW 12.7 mph 24.2 mph N/A   Clear
4:48 PM 72.0 °F 43.0 °F 35% 29.90 in 10.0 mi WSW 10.4 mph 19.6 mph N/A   Clear
5:48 PM 71.1 °F 41.0 °F 34% 29.90 in 10.0 mi SSW 9.2 mph - N/A   Clear
6:48 PM 68.0 °F 41.0 °F 37% 29.93 in 10.0 mi SW 3.5 mph - N/A   Clear
7:48 PM 64.9 °F 46.0 °F 50% 29.93 in 10.0 mi NNW 11.5 mph - N/A   Clear
8:48 PM 63.0 °F 41.0 °F 45% 29.94 in 10.0 mi NNW 19.6 mph - N/A   Clear
9:48 PM 63.0 °F 43.0 °F 48% 29.92 in 10.0 mi NNW 26.5 mph 33.4 mph N/A   Clear
10:48 PM 64.0 °F 39.9 °F 41% 29.93 in 10.0 mi NW 15.0 mph 26.5 mph N/A   Clear
11:48 PM 63.0 °F 41.0 °F 45% 29.92 in 10.0 mi NNW 12.7 mph - N/A   Clear